Location: Vesunti
(61.5000°N, 22.8333°E)
Time: 05:02:24
(UTC+00:00)

Cosmos 1980 Rocket - Pass Details

Date: 17 February 2020
Orbit: 831 x 848 km, 71.0° (Epoch: 30 March)

Event Time Altitude Azimuth Distance (km) Brightness Sun altitude
Exits shadow 04:33:00 - 312° (NW) 2,597 4.3 -11.8°
Reaches altitude 10° 04:33:24 10° 314° (NW) 2,459 4.2 -11.8°
Maximum altitude 04:38:42 41° 24° (NNE) 1,207 3.2 -11.2°
Drops below altitude 10° 04:44:00 10° 94° (E) 2,446 6.2 -10.5°
Sets 04:46:35 0° 102° (ESE) 3,378 7.6 -10.2°
